Regional Weather Roundup
Issued by NWS

Home | Current Version | Previous Version | Graphics & Text | Print | Product List | Glossary On
Versions: 1 2 3 4 5 6 7 8 9 10 11 12 13 14 15 16 17 18 19 20 21 22 23 24 25 26 27 28
000
ASUS45 KBOU 302207
RWRCO

WEATHER ROUNDUP FOR COLORADO
NATIONAL WEATHER SERVICE DENVER/BOULDER CO
400 PM MDT MON MAY 30 2016

NOTE: "FAIR" INDICATES FEW OR NO CLOUDS BELOW 12000 FEET WITH NO
SIGNIFICANT WEATHER AND/OR OBSTRUCTIONS TO VISIBILITY.

COZ001>005-013-030-031-302300-
...NORTHWEST COLORADO...

CITY           SKY/WX    TMP DP  RH WIND       PRES   REMARKS
CRAIG          FAIR      72  41  32 NW14      30.07F
HAYDEN         FAIR      68  36  30 NW10G23   30.08F
MEEKER         FAIR      73  35  25 W10G20    30.08F
MOUNT WERNER   NOT AVBL
STEAMBOAT SPGS FAIR      67  35  30 W15G26    30.09F
WALDEN         NOT AVBL
$$

COZ006>008-011-302300-
...WEST CENTRAL VALLEYS...

CITY           SKY/WX    TMP DP  RH WIND       PRES   REMARKS
GRAND JUNCTION FAIR      76  27  16 NW12      30.00R
MONTROSE       PTSUNNY   72  33  24 VRB3      30.06S
EAGLE          PTSUNNY   70  28  21 S17G29    30.08R
RIFLE          FAIR      71  32  23 NW12G21   30.01F
DELTA          FAIR      83  26  12 W16G22    29.99F
NUCLA          FAIR      73  30  20 N7        30.09S
$$

COZ017>023-064>068-302300-
...SOUTHWEST COLORADO...

CITY           SKY/WX    TMP DP  RH WIND       PRES   REMARKS
DURANGO        FAIR      76  15  10 W10G24    30.07F
CORTEZ         FAIR      76  19  11 S7        30.03F
PAGOSA SPRINGS FAIR      71   9   9 SW12G18   30.14F
TELLURIDE      FAIR      63  15  15 W10G18    30.23F
WOLF CREEK PAS FAIR      46  18  31 S14G32    30.41S
$$

COZ009-010-012-014-032>034-037-058>063-302300-
...CENTRAL COLORADO...

CITY           SKY/WX    TMP DP  RH WIND       PRES   REMARKS
ASPEN          PTSUNNY   64  22  20 N8G22     30.14F
BUENA VISTA    FAIR      66  19  16 SE10      30.14S
COPPER MTN     NOT AVBL
BERTHOUD PASS  FAIR      32  23  69 NW28      30.39F WCI  18
COTTONWOOD PAS PTSUNNY   64  12  13 E8        30.25F
GUNNISON       FAIR      66  25  20 NW14G26   30.15S
KREMMLING      PTSUNNY   63  32  31 SE7       30.12F
LEADVILLE      FAIR      55  20  25 NW15G23   30.27R
MONARCH PASS   LGT SNOW  37  28  70 NW10G22   30.51R
SALIDA         NOT AVBL
SUNLIGHT       CLOUDY    46  32  57 W7        30.35F
WILKERSON PASS FAIR      50  21  32 SW9       30.36F
$$

COZ069>075-302300-
...SAN LUIS VALLEY/SANGRE DE CRISTO MOUNTAINS...

CITY           SKY/WX    TMP DP  RH WIND       PRES   REMARKS
ALAMOSA        FAIR      73  23  15 E6        30.07F
LA VETA PASS   FAIR      64  23  20 S6        30.27F
SAGUACHE       LGT RAIN  61  32  33 N14       30.14S
$$

COZ035-036-038>040-302300-
...NORTHERN COLORADO FRONT RANGE...

CITY           SKY/WX    TMP DP  RH WIND       PRES   REMARKS
DENVER INTL AP PTSUNNY   68  38  33 N21G36    29.97R THUNDER
DMNS CITY PARK   N/A     63  45  51 E13G18    29.98R
AURORA         PTSUNNY   67  38  34 N15G23    30.02R THUNDER
FRONT RANGE AP PTSUNNY   70  41  35 N21G31    30.01R
ERIE MUNI ARPT FAIR      70  41  35 NE8       29.96F
BOULDER MUN AP FAIR      72  32  23 W13G37    29.97R
CENTENNIAL     PTSUNNY   69  34  27 NW22G30   29.99R
BROOMFIELD     PTSUNNY   75  37  25 N14       29.99F
FORT COLLINS   FAIR      48  46  93 E12       29.98R
LONGMONT       FAIR      76  33  21 W14G28    29.97F
$$

COZ041-046-047-076>085-087-088-302300-
...PIKES PEAK/PALMER DIVIDE AND SOUTHERN FOOTHILLS...

CITY           SKY/WX    TMP DP  RH WIND       PRES   REMARKS
COLO. SPRINGS  PTSUNNY   77  29  17 NW13      30.01F
A. F. ACADEMY  FAIR      72  30  21 NW24G35   30.02F
SCHRIEVER AFB  NOT AVBL
ELLICOTT       NOT AVBL
FALCON         PTSUNNY   74  24  15 NW5       30.07R
FORT CARSON    FAIR      76  37  24 E7        29.97F
LIMON          PTSUNNY   65  40  39 NE12      30.02R THUNDER
MONUMENT HILL  FAIR      70  32  24 W23G31    30.09S
TRINIDAD       FAIR      78  31  17 S14       30.00S
$$

COZ042>045-048>051-090-091-302300-
...NORTHEAST COLORADO...

CITY           SKY/WX    TMP DP  RH WIND       PRES   REMARKS
GREELEY ARPT   PTSUNNY   66  46  48 NE14G21   29.95F
AKRON          FAIR      67  43  41 N16       29.94R
BURLINGTON     FAIR      80  49  33 S10       29.90F
WRAY           NOT AVBL
STERLING       LGT RAIN  59  50  72 N21G33    29.91R
HOLYOKE        FAIR      82  46  28 SE6       29.86F
FORT MORGAN    PTSUNNY   65  44  45 N20G25    29.95R
$$

COZ086-089-092>099-302300-
...SOUTHEAST COLORADO...

CITY           SKY/WX    TMP DP  RH WIND       PRES   REMARKS
PUEBLO         FAIR      81  35  19 S15G28    29.88F
LA JUNTA       FAIR      82  46  28 SE6       29.87F
LAMAR          FAIR      88  52  29 S18G24    29.82F
SPRINGFIELD      N/A     77  51  40 S10       29.92F
$$




USA.gov is the U.S. government's official web portal to all federal, state and local government web resources and services.